Hourly Data Report for May 04, 2006

TORONTO CITY
ONTARIO

43°40'00.000" N
79°24'00.000" W
112.50 m
6158355
71508
XTO

Download Data

Hourly Data (May 2006)
Hourly Data Report for May 4, 2006
TIME
LST
Temp Definition
°C
Dew Point Definition
°C
Rel Hum Definition
%
Precip. Amount Definition
mm

Wind Dir Definition
10's deg

Wind Spd Definition
km/h
Visibility Definition
km
Stn Press Definition
kPa
Hmdx Definition


Wind Chill Definition


Weather Definition


00:00 11.8 7.5 75   LegendMM LegendMM   99.83     LegendNANA
01:00 12.1 7.4 73   LegendMM LegendMM   99.83     LegendNANA
02:00 12.0 7.9 76   LegendMM LegendMM   99.79     LegendNANA
03:00 12.0 8.1 77   LegendMM LegendMM   99.78     LegendNANA
04:00 13.1 8.0 71   LegendMM LegendMM   99.73     LegendNANA
05:00 13.6 7.7 67   LegendMM LegendMM   99.71     LegendNANA
06:00 13.7 8.1 69   LegendMM LegendMM   99.72     LegendNANA
07:00 15.0 8.3 64   LegendMM LegendMM   99.70     LegendNANA
08:00 16.0 9.4 65   LegendMM LegendMM   99.67     LegendNANA
09:00 16.3 10.1 67   LegendMM LegendMM   99.58     LegendNANA
10:00 19.0 11.4 61   LegendMM LegendMM   99.53     LegendNANA
11:00 20.0 11.9 60   LegendMM LegendMM   99.49     LegendNANA
12:00 20.7 13.1 62   LegendMM LegendMM   99.45     LegendNANA
13:00 21.2 13.2 60   LegendMM LegendMM   99.40     LegendNANA
14:00 20.9 14.6 67   LegendMM LegendMM   99.34 25   LegendNANA
15:00 20.6 13.7 65   LegendMM LegendMM   99.28     LegendNANA
16:00 23.7 6.4 33   LegendMM LegendMM   99.26     LegendNANA
17:00 22.5 5.9 34   LegendMM LegendMM   99.28     LegendNANA
18:00 20.9 4.9 35   LegendMM LegendMM   99.36     LegendNANA
19:00 19.4 3.4 35   LegendMM LegendMM   99.42     LegendNANA
20:00 17.9 3.8 39   LegendMM LegendMM   99.48     LegendNANA
21:00 15.2 5.0 51   LegendMM LegendMM   99.60     LegendNANA
22:00 13.8 4.4 53   LegendMM LegendMM   99.62     LegendNANA
23:00 13.3 4.6 56   LegendMM LegendMM   99.61     LegendNANA

Notes on Data Quality.

Legend

  • E = Estimated
  • M = Missing
  • NA = Not Available*
  • [empty] = Indicates an unobserved value
Date modified: